NW Arkansas Airport, AR

8:29 AM CDT on August 16, 2017 (GMT -0500)
Northwest Arkansas Regional

Weather History for KXNA - July, 2013

Change the Weather History Date:

Saturday, July 27, 2013

  Actual Average (KVBT) Record (KVBT)
Temperature  
Mean Temperature 72 °F -  
Max Temperature 82 °F 90 °F 102 °F (2011)
Min Temperature 62 °F 66 °F 55 °F (1962)
Cooling Degree Days 7    
Growing Degree Days 22 (Base 50)    
Moisture  
Dew Point 63 °F    
Average Humidity 84    
Maximum Humidity 100    
Minimum Humidity 42    
Precipitation  
Precipitation 0.01 in - - ()
Sea Level Pressure  
Sea Level Pressure 30.02 in    
Wind  
Wind Speed 4 mph (North)    
Max Wind Speed 12 mph    
Max Gust Speed -    
Visibility 6 miles    
Events Fog    
Averages and records for this station are not official NWS values.
T = Trace of Precipitation, MM = Missing Value Source: NWS Daily Summary

Daily Weather History Graph

Daily Weather History Graph

Search for Another Location

Airport or City:

Trip Planner

Search our weather history database for the weather conditions in past years. The results will help you decide how hot, cold, wet, or windy it might be!

Date:

Astronomy

Jul. 27, 2013 Rise Set
Actual Time 6:20 AM CDT 8:26 PM CDT
Civil Twilight 5:51 AM CDT 8:55 PM CDT
Nautical Twilight 5:16 AM CDT 9:30 PM CDT
Astronomical Twilight 4:38 AM CDT 10:08 PM CDT
Moon 11:27 PM CDT (7/27) 11:49 AM CDT (7/27)
Length of Visible Light 15h 03m
Length of Day
14h 06m
Waning Gibbous, 70% of the Moon is Illuminated
Jul 27
Waning Gibbous
Jul 29
Last Quarter
Aug 6
New
Aug 14
First Quarter
Aug 20
Full

Hourly Weather History & Observations

Time (CDT) Temp. Heat Index Dew Point Humidity Pressure Visibility Wind Dir Wind Speed Gust Speed Precip Events Conditions
12:53 AM 64.0 °F - 64.0 °F 100% 30.03 in 6.0 mi Calm Calm - N/A   Clear
1:53 AM 64.0 °F - 63.0 °F 96% 30.02 in 6.0 mi Calm Calm - N/A   Clear
2:37 AM 62.6 °F - 62.6 °F 100% 30.05 in 1.8 mi NW 3.5 mph - N/A   Clear
2:45 AM 62.6 °F - 62.6 °F 100% 30.05 in 1.0 mi WNW 5.8 mph - N/A   Mist
2:47 AM 64.4 °F - 64.4 °F 100% 30.05 in 0.8 mi WNW 4.6 mph - N/A   Mist
2:53 AM 63.0 °F - 63.0 °F 100% 30.01 in 0.2 mi Calm Calm - N/A Fog Fog
3:01 AM 62.6 °F - 62.6 °F 100% 30.05 in 0.2 mi NW 4.6 mph - N/A Fog Fog
3:10 AM 64.4 °F - 64.4 °F 100% 30.05 in 0.2 mi WNW 4.6 mph - N/A Fog Fog
3:12 AM 64.4 °F - 64.4 °F 100% 30.05 in 0.5 mi NW 4.6 mph - N/A Fog Fog
3:26 AM 64.4 °F - 64.4 °F 100% 30.04 in 2.0 mi Calm Calm - N/A   Overcast
3:44 AM 64.4 °F - 64.4 °F 100% 30.04 in 3.0 mi Calm Calm - N/A   Overcast
3:53 AM 64.9 °F - 64.9 °F 100% 30.00 in 3.0 mi Calm Calm - N/A   Overcast
4:13 AM 64.4 °F - 64.4 °F 100% 30.03 in 4.0 mi NW 3.5 mph - N/A   Overcast
4:53 AM 66.0 °F - 66.0 °F 100% 30.00 in 5.0 mi NNW 6.9 mph - N/A   Mostly Cloudy
5:02 AM 66.2 °F - 66.2 °F 100% 30.03 in 1.8 mi NW 5.8 mph - N/A   Mostly Cloudy
5:14 AM 66.2 °F - 66.2 °F 100% 30.04 in 0.5 mi NNW 8.1 mph - N/A Fog Fog
5:24 AM 66.2 °F - 66.2 °F 100% 30.04 in 0.5 mi NNW 6.9 mph - N/A Fog Fog
5:38 AM 66.2 °F - 66.2 °F 100% 30.04 in 0.5 mi North 6.9 mph - N/A Fog Fog
5:53 AM 66.9 °F - 66.9 °F 100% 30.01 in 1.0 mi North 8.1 mph - 0.01 in   Mist
6:24 AM 66.2 °F - 66.2 °F 100% 30.05 in 3.0 mi North 6.9 mph - N/A   Overcast
6:53 AM 66.9 °F - 66.9 °F 100% 30.01 in 8.0 mi North 3.5 mph - N/A   Overcast
7:53 AM 66.9 °F - 66.0 °F 97% 30.03 in 10.0 mi NNE 4.6 mph - N/A   Overcast
8:53 AM 68.0 °F - 64.9 °F 90% 30.04 in 10.0 mi Calm Calm - N/A   Overcast
9:31 AM 69.8 °F - 64.4 °F 83% 30.08 in 9.0 mi NNE 5.8 mph - N/A   Overcast
9:53 AM 70.0 °F - 64.9 °F 84% 30.05 in 10.0 mi North 6.9 mph - N/A   Overcast
10:53 AM 72.0 °F - 64.9 °F 78% 30.05 in 10.0 mi NNE 4.6 mph - N/A   Mostly Cloudy
11:24 AM 73.4 °F - 62.6 °F 69% 30.08 in 10.0 mi Calm Calm - N/A   Scattered Clouds
11:53 AM 75.0 °F - 63.0 °F 66% 30.04 in 10.0 mi ENE 3.5 mph - N/A   Partly Cloudy
12:53 PM 78.1 °F - 60.1 °F 54% 30.03 in 10.0 mi North 10.4 mph - N/A   Partly Cloudy
1:53 PM 79.0 °F - 57.9 °F 48% 30.01 in 10.0 mi NE 6.9 mph - N/A   Clear
2:53 PM 82.0 °F 81.7 °F 57.0 °F 42% 29.99 in 10.0 mi NNE 11.5 mph - N/A   Clear
3:53 PM 80.1 °F 80.4 °F 57.0 °F 45% 29.98 in 10.0 mi Calm Calm - N/A   Clear
4:53 PM 81.0 °F 81.3 °F 59.0 °F 47% 29.97 in 10.0 mi North 9.2 mph - N/A   Clear
5:53 PM 80.1 °F 80.7 °F 59.0 °F 48% 29.97 in 10.0 mi NNW 5.8 mph - N/A   Clear
6:53 PM 78.1 °F - 59.0 °F 52% 29.96 in 10.0 mi NNW 6.9 mph - N/A   Partly Cloudy
7:53 PM 75.0 °F - 59.0 °F 57% 29.98 in 10.0 mi North 5.8 mph - N/A   Mostly Cloudy
8:53 PM 71.1 °F - 59.0 °F 66% 29.97 in 10.0 mi NNE 4.6 mph - N/A   Clear
9:53 PM 66.9 °F - 59.0 °F 76% 29.97 in 10.0 mi NNE 4.6 mph - N/A   Clear
10:53 PM 66.0 °F - 60.1 °F 81% 29.98 in 10.0 mi North 3.5 mph - N/A   Clear
11:53 PM 64.0 °F - 60.1 °F 87% 29.99 in 10.0 mi North 3.5 mph - N/A   Clear